OBJECT E, 61231

Orbit data source: Space-Track

You're viewing an Uncataloged Satellite

Recently launched and/or uncataloged satellites may have evolving metadata. Metadata may include but not limited to: Owner, Maufacturer, Bus, Motor, and Mission.

OBJECT E, 61231 is a Chinese satellite in SSO that was launched on Tue, 24 Sep 2024 UTC via a JIELONG-3 launch vehicle from the Yellow Sea Launch Area, China (YSLA). Unknown objects in Earth's orbit typically refer to objects detected orbiting the Earth but have not yet been identified or cataloged. These objects could be anything from previously untracked satellites, spent rocket stages, debris from satellite collisions, or even natural meteoroids temporarily captured by Earth's gravity.

Loading next visibility...
Identifier
61231, 2024-173E
Orbit
SSO
Country
Flag of CNCN / PRC
Related business
None
Manufacturer
Unknown
Mission
Operational Commercial Imaging
Bus & Motor
Unknown
Mass
Unknown
Launch date (UTC)
2024-09-24 (1 year ago)
Launch vehicle
JIELONG-3
Launch site
Yellow Sea Launch Area, China (YSLA)
Object type
Unknown
Shape & HBR
Box + 3 Pan, 0.1 m
Radar Cross Section
0.135 m², Large (>1 m²)

Expand to show TLE details & history
Last TLE update: 9 hours ago

TLE from 9 hours ago
0 OBJECT E
1 61231U 24173E   25310.26625196  .00006739  00000-0  32361-3 0  9991
2 61231  97.4120  21.6171 0001722  91.9273 268.2159 15.19169492 61916
Epoch: 2025-11-06T06:23Z
TLE epoch observation values (Epoch: 2025-11-06T06:23:24.169Z)
Latitude
-0°
Longitude
-119.96064°
Altitude
511.475 km
Speed
7.608 km/s
True Right ascension
01h 26m 28s
True Declination
0° 00' 00"
Sunlit
Object was in full shadow at epoch
Visualization orbit readout
Latitude
Unknown
Longitude
Unknown
Altitude
Unknown
Speed
Unknown
Apparent Right ascension
Unknown
Apparent Declination
Unknown
Sunlit
N/A
Visualization observer readout
Local Sidereal Time
11:19:44
Azimuth
Unknown
Elevation
Unknown
Doppler factor
Unknown
Orbital elements
Apogee altitude
506.502 km
Perigee altitude
504.131 km
Semi-major axis
6,883.453 km
Eccentricity
0.00017
Inclination
97.412°
RAAN
21.6171°
Arg. of periapsis
91.9273°
True anomaly
268.19618°
Mean anomaly
268.2159°
Eccentric anomaly
268.20604°
Mean motion
3.80044 °/min
Orbital period
94.73 mins
BSTAR
0.00032361
Loading maneuver chart data...
Computing Atmospheric mass density...
Loading historical data...
Loading historical data...
Loading historical data...
Loading historical data...
Loading historical data...
Loading historical data...
Loading historical data...

Documentation

Showing up to 5 results
|